Back to catalog

SL-24 DEB

AliveSSO
NORAD 36602·DEBRIS·🇷🇺 Russia

Launched Jun 15, 2010 from Dombarovsky

Loading…

Next Passes (next 24 hours)

TLE

FreshSource: Space-Track

Epoch: Sep 14, 2026, 00:56 UTC

1 36602U 10028E   26257.03943969  .00002385  00000-0  32463-3 0  9992
2 36602  97.9527  95.5834 0016131  92.6831 267.6227 14.79588149867529

Track SL-24 DEB in real time with AllMySat

Download on the App Store